Погода в Среднем Егорлыке

Россия / Ростовская область     46°22′00″N   40°49′07″E
темп.,
°C
ветер,
м/с
пор.,
м/с
влажн.,
%
обл.,
%
осадки,
мм/ч
давл.,
гПа
погр.,
м
7 мая, пт
пт700:00+13ююв377695 0.1 1012126
03:00+12ю348590 0.4 101276
06:00+11з36918 0.6 1014154
09:00+16зюз5764100 0.6 1015468
12:00+19зюз67525 0.0 10161185
15:00+20з775335 0.0 10161946
18:00+18з47675 0.0 1016392
21:00+13зсз22785 0.0 101814
8 мая, сб
сб800:00+12ююв117685 0.0 101810
03:00+11юв228013 0.0 101722
06:00+12юв348716 0.0 101694
09:00+18юв456956 0.0 1015491
12:00+22ююв4556100 0.0 10141180
15:00+23ююв3451100 0.0 10131699
18:00+22ю2265100 0.0 101140
21:00+17ю1172100 0.0 101111
9 мая, вс
вс900:00+15ю228094 0.1 101011
03:00+15юз4486100 0.7 100868
06:00+13с5995100 1.2 1009291
09:00+12з5796100 6.0 1010587
12:00+8сз81291100 4.6 1015886
15:00+8сз71089100 4.9 10181008
18:00+10сз488398 0.4 1020675
21:00+7зсз47925 0.7 1022142
10 мая, пн
пн1000:00+6з489250 0.0 1022151
03:00+5з49915 0.0 1022172
06:00+6зсз41088100 0.0 1022292
09:00+10зсз7969100 0.0 10201100
12:00+10зсз91169100 0.3 10191469
15:00+7з81192100 1.8 10181151
18:00+7зюз71093100 0.5 10171017
21:00+7зюз61095100 0.9 1016515
11 мая, вт
вт1100:00+7зюз61097100 0.1 1014531
03:00+8зюз5997100 0.4 1014592
06:00+8юз4998100 0.2 1014516
09:00+8сз2598100 3.5 1013332
12:00+8с5992100 0.2 1013559
15:00+9ссв798879 0.2 1014734
18:00+8св5891100 0.0 1016653
21:00+8всв7996100 0.3 1016539